Weather Roundup
Issued by NWS Chicago, IL

Home | Current Version | Previous Version | Graphics & Text | Print | Product List | Glossary On
Versions: 1 2 3 4 5 6 7 8 9 10 11 12 13 14 15 16 17 18 19 20 21 22 23 24 25 26 27 28 29 30 31 32 33 34 35 36 37 38 39 40 41 42 43 44 45 46 47 48 49 50
000
NZUS59 KLOT 182058
HRRLOT

CHICAGO AREA WEATHER ROUNDUP
NATIONAL WEATHER SERVICE CHICAGO/ROMEOVILLE IL
400 PM CDT FRI APR 18 2014

NOTE: "FAIR" INDICATES FEW OR NO CLOUDS BELOW 12,000 FEET WITH NO
SIGNIFICANT WEATHER AND/OR OBSTRUCTIONS TO VISIBILITY.

* THESE STATIONS ARE NOT UNDER NWS QUALITY CONTROL. THEY ALSO MAY NOT
  REPORT WEATHER SUCH AS PRECIPITATION OR FOG.

ILZ005-006-012>014-019>023-182200-
NORTHEAST ILLINOIS

CITY           SKY/WX    TMP DP  RH WIND       PRES   REMARKS
OHARE          MOSUNNY   48  31  51 NE13      30.33F
MIDWAY         MOSUNNY   49  35  58 NE12      30.33F
AURORA         SUNNY     62  33  33 CALM      30.28F
WAUKEGAN       SUNNY     42  31  64 NE9       30.34F
DUPAGE AIRPORT SUNNY     58  37  45 NE10      30.29F
WHEELING       SUNNY     46  32  58 NE13      30.35F
NORTHERLY IS     N/A     41  34  76 NE10        N/A
$$

WIZ051-052-058>065-066-070>072-182200-
SOUTHEAST WISCONSIN

CITY           SKY/WX    TMP DP  RH WIND       PRES   REMARKS
MILWAUKEE      SUNNY     42  31  64 NE12      30.37S
WAUKESHA       SUNNY     48  32  53 NE9       30.34F
$$

INZ001>003-010>013-019-020-182200-
NORTHWEST INDIANA

CITY           SKY/WX    TMP DP  RH WIND       PRES   REMARKS
GARY*          MOSUNNY   45  34  65 N12       30.36S
MICHIGAN CITY* NOT AVBL
RENSSELAER*    NOT AVBL
$$

LMZ740>746-182200-
SOUTHERN LAKE MICHIGAN

STATION/POSITION TIME  SKY/WX   TEMP WIND        PRES    VSBY
                                AIR  DIR/SP/G
                 (UTC)          (F)  (DEG/KT/KT) (MB)    (MI)
HARRISON CRIB    2000            37   30/ 14/ 15   N/A
BURNHAM HARBOR   2000            41   30/ 10/ 13   N/A
CALUMET HARBOR   2000            39   20/ 12/ 14 1028.6F
BURNS HARBOR     NOT AVBL
MICHIGAN CITY    2000            39  350/ 10/ 12   N/A
$$

ABBREVIATIONS USED IN REMARKS
   TC - TEMPERATURE IN CELSIUS
  WCI - WIND CHILL INDEX
   HX - HEAT INDEX
  VSB - VISIBILITY
$$


USA.gov is the U.S. government's official web portal to all federal, state and local government web resources and services.